Location: Caltech
(34.1382°N, 118.1253°W)
Time: 07:29:29
(UTC-07:00)

OPAL - Visible Passes

Search period start: 02 October 2014 00:00
Search period end: 12 October 2014 00:00
Orbit: 744 x 796 km, 100.2° (Epoch: 01 October)

Date Brightness Start Highest point End Pass type
(mag) Time Alt. Az. Time Alt. Az. Time Alt. Az.
02 Oct 10.6 03:31:05 10° ENE 03:32:36 11° ENE 03:34:08 10° NE visible
02 Oct 7.4 05:05:33 10° SSE 05:10:45 80° WSW 05:16:00 10° NNW visible
02 Oct 10.2 18:59:09 10° NNW 19:02:58 22° WNW 19:06:45 10° WSW visible
03 Oct 8.6 04:30:43 10° SE 04:35:39 45° ENE 04:40:36 10° N visible
03 Oct 8.8 06:11:05 10° SW 06:14:39 19° W 06:18:14 10° NW visible
04 Oct 9.9 03:56:57 10° ESE 04:00:43 21° ENE 04:04:30 10° NNE visible
04 Oct 7.9 05:34:20 10° S 05:39:15 43° W 05:44:12 10° NNW visible
04 Oct 10.6 19:29:15 10° NW 19:31:05 12° WNW 19:32:55 10° W visible
05 Oct 7.6 04:58:48 10° SSE 05:04:01 83° ENE 05:09:15 10° NNW visible
05 Oct 9.8 18:52:06 10° N 18:56:17 27° WNW 19:00:25 10° WSW visible
06 Oct 9.0 04:24:13 10° SE 04:28:57 36° ENE 04:33:41 10° N visible
06 Oct 8.6 06:03:46 10° SSW 06:07:50 23° W 06:11:55 10° NW visible
07 Oct 10.2 03:50:50 10° ESE 03:54:04 17° ENE 03:57:19 10° NNE visible
07 Oct 7.6 05:27:24 10° S 05:32:29 53° WSW 05:37:34 10° NNW visible
07 Oct 10.4 19:21:43 10° NNW 19:24:26 15° WNW 19:27:09 10° W visible
08 Oct 7.8 04:52:07 10° SSE 04:57:17 68° ENE 05:02:27 10° N visible
08 Oct 9.5 18:45:08 10° N 18:49:35 33° WNW 18:53:58 10° SW visible
09 Oct 9.3 04:17:47 10° SE 04:22:16 30° ENE 04:26:44 10° N visible
09 Oct 8.4 05:56:35 10° SSW 06:01:02 28° W 06:05:29 10° NW visible
10 Oct 10.4 03:44:54 10° E 03:47:26 14° ENE 03:49:57 10° NNE visible
10 Oct 7.5 05:20:32 10° S 05:25:42 66° WSW 05:30:53 10° NNW visible
10 Oct 10.2 19:14:27 10° NNW 19:17:46 18° WNW 19:21:04 10° WSW visible
11 Oct 8.2 04:45:29 10° SSE 04:50:33 54° ENE 04:55:37 10° N visible
11 Oct 9.1 06:26:45 10° SW 06:29:40 15° W 06:32:35 10° WNW visible
